<?xml version='1.0' encoding='UTF-8'?>
<gpx xmlns="http://www.topografix.com/GPX/1/1" creator="www.balnam.be" version="1.1" xmlns:xsi="http://www.w3.org/2001/XMLSchema-instance" xsi:schemaLocation="http://www.topografix.com/GPX/1/1 http://www.topografix.com/GPX/1/1/gpx.xsd">
<trk>
<name>lvili1</name>
<cmt>q</cmt>
<desc>Lixhe Sentier n°1 </desc>
<link href="https://chemins.be/lixhe/sentier/1"/><trkseg>
<trkpt lat="50.750815" lon="5.677696"><time>2026-05-08T00:12:30Z</time></trkpt>
<trkpt lat="50.749981" lon="5.677140"><time>2026-05-08T00:22:30Z</time></trkpt>
<trkpt lat="50.748016" lon="5.677588"><time>2026-05-08T00:32:30Z</time></trkpt>
<trkpt lat="50.744673" lon="5.676447"><time>2026-05-08T00:42:30Z</time></trkpt>
</trkseg>
</trk>
<trk>
<name>lvili10</name>
<cmt>r</cmt>
<desc>Lixhe Chemin n°10 Rue Oger Ruth</desc>
<link href="https://chemins.be/lixhe/chemin/10"/><trkseg>
<trkpt lat="50.768105" lon="5.686261"><time>2026-05-08T00:12:30Z</time></trkpt>
<trkpt lat="50.768461" lon="5.685732"><time>2026-05-08T00:22:30Z</time></trkpt>
</trkseg></trk>
<trk>
<name>lvili10</name>
<cmt>v</cmt>
<desc>Lixhe Chemin n°10 Rue Oger Ruth</desc>
<link href="https://chemins.be/lixhe/chemin/10"/><trkseg>
<trkpt lat="50.768461" lon="5.685732"><time>2026-05-08T00:22:30Z</time></trkpt>
<trkpt lat="50.769201" lon="5.684585"><time>2026-05-08T00:32:30Z</time></trkpt>
<trkpt lat="50.769671" lon="5.684283"><time>2026-05-08T00:42:30Z</time></trkpt>
</trkseg></trk>
<trk>
<name>lvili10</name>
<cmt>q</cmt>
<desc>Lixhe Chemin n°10 Rue Oger Ruth</desc>
<link href="https://chemins.be/lixhe/chemin/10"/><trkseg>
<trkpt lat="50.769671" lon="5.684283"><time>2026-05-08T00:42:30Z</time></trkpt>
<trkpt lat="50.770934" lon="5.683507"><time>2026-05-08T00:52:30Z</time></trkpt>
</trkseg></trk>
<trk>
<name>lvili10</name>
<cmt>s</cmt>
<desc>Lixhe Chemin n°10 Rue Oger Ruth</desc>
<link href="https://chemins.be/lixhe/chemin/10"/><trkseg>
<trkpt lat="50.770934" lon="5.683507"><time>2026-05-08T00:52:30Z</time></trkpt>
<trkpt lat="50.772645" lon="5.682455"><time>2026-05-08T01:02:30Z</time></trkpt>
</trkseg></trk>
<trk>
<name>lvili10</name>
<cmt>d</cmt>
<desc>Lixhe Chemin n°10 Rue Oger Ruth</desc>
<link href="https://chemins.be/lixhe/chemin/10"/><trkseg>
<trkpt lat="50.772645" lon="5.682455"><time>2026-05-08T01:02:30Z</time></trkpt>
<trkpt lat="50.774731" lon="5.680864"><time>2026-05-08T01:12:30Z</time></trkpt>
<trkpt lat="50.775775" lon="5.680839"><time>2026-05-08T01:22:30Z</time></trkpt>
<trkpt lat="50.777372" lon="5.679551"><time>2026-05-08T01:32:30Z</time></trkpt>
</trkseg>
</trk>
<trk>
<name>lvili11</name>
<cmt>d</cmt>
<desc>Lixhe Chemin n°11 </desc>
<link href="https://chemins.be/lixhe/chemin/11"/><trkseg>
<trkpt lat="50.751325" lon="5.661689"><time>2026-05-08T00:12:30Z</time></trkpt>
<trkpt lat="50.751063" lon="5.662990"><time>2026-05-08T00:22:30Z</time></trkpt>
<trkpt lat="50.749568" lon="5.664309"><time>2026-05-08T00:32:30Z</time></trkpt>
<trkpt lat="50.747733" lon="5.667296"><time>2026-05-08T00:42:30Z</time></trkpt>
</trkseg></trk>
<trk>
<name>lvili11</name>
<cmt>s</cmt>
<desc>Lixhe Chemin n°11 </desc>
<link href="https://chemins.be/lixhe/chemin/11"/><trkseg>
<trkpt lat="50.747733" lon="5.667296"><time>2026-05-08T00:42:30Z</time></trkpt>
<trkpt lat="50.747044" lon="5.667998"><time>2026-05-08T00:52:30Z</time></trkpt>
</trkseg>
</trk>
<trk>
<name>lvili14</name>
<cmt>d</cmt>
<desc>Lixhe Sentier n°14 </desc>
<link href="https://chemins.be/lixhe/sentier/14"/><trkseg>
<trkpt lat="50.769745" lon="5.684456"><time>2026-05-08T00:12:30Z</time></trkpt>
<trkpt lat="50.770460" lon="5.686555"><time>2026-05-08T00:22:30Z</time></trkpt>
</trkseg>
</trk>
<trk>
<name>lvili17</name>
<cmt>v</cmt>
<desc>Lixhe Chemin n°17 </desc>
<link href="https://chemins.be/lixhe/chemin/17"/><trkseg>
<trkpt lat="50.764347" lon="5.681961"><time>2026-05-08T00:12:30Z</time></trkpt>
<trkpt lat="50.764464" lon="5.681800"><time>2026-05-08T00:22:30Z</time></trkpt>
<trkpt lat="50.764595" lon="5.681587"><time>2026-05-08T00:32:30Z</time></trkpt>
<trkpt lat="50.766912" lon="5.682797"><time>2026-05-08T00:42:30Z</time></trkpt>
<trkpt lat="50.767528" lon="5.683604"><time>2026-05-08T00:52:30Z</time></trkpt>
</trkseg></trk>
<trk>
<name>lvili17</name>
<cmt>d</cmt>
<desc>Lixhe Chemin n°17 </desc>
<link href="https://chemins.be/lixhe/chemin/17"/><trkseg>
<trkpt lat="50.767528" lon="5.683604"><time>2026-05-08T00:52:30Z</time></trkpt>
<trkpt lat="50.768340" lon="5.684294"><time>2026-05-08T01:02:30Z</time></trkpt>
</trkseg></trk>
<trk>
<name>lvili17</name>
<cmt>v</cmt>
<desc>Lixhe Chemin n°17 </desc>
<link href="https://chemins.be/lixhe/chemin/17"/><trkseg>
<trkpt lat="50.768340" lon="5.684294"><time>2026-05-08T01:02:30Z</time></trkpt>
<trkpt lat="50.769026" lon="5.684870"><time>2026-05-08T01:12:30Z</time></trkpt>
</trkseg>
</trk>
<trk>
<name>lvili18</name>
<cmt>v</cmt>
<desc>Lixhe Chemin n°18 Place du Tige</desc>
<link href="https://chemins.be/lixhe/chemin/18"/><trkseg>
<trkpt lat="50.760551" lon="5.661192"><time>2026-05-08T00:12:30Z</time></trkpt>
<trkpt lat="50.760266" lon="5.662782"><time>2026-05-08T00:22:30Z</time></trkpt>
<trkpt lat="50.761297" lon="5.667500"><time>2026-05-08T00:32:30Z</time></trkpt>
</trkseg></trk>
<trk>
<name>lvili18</name>
<cmt>q</cmt>
<desc>Lixhe Chemin n°18 Place du Tige</desc>
<link href="https://chemins.be/lixhe/chemin/18"/><trkseg>
<trkpt lat="50.761297" lon="5.667500"><time>2026-05-08T00:32:30Z</time></trkpt>
<trkpt lat="50.761967" lon="5.670669"><time>2026-05-08T00:42:30Z</time></trkpt>
</trkseg></trk>
<trk>
<name>lvili18</name>
<cmt>s</cmt>
<desc>Lixhe Chemin n°18 Place du Tige</desc>
<link href="https://chemins.be/lixhe/chemin/18"/><trkseg>
<trkpt lat="50.761967" lon="5.670669"><time>2026-05-08T00:42:30Z</time></trkpt>
<trkpt lat="50.762891" lon="5.676214"><time>2026-05-08T00:52:30Z</time></trkpt>
<trkpt lat="50.763348" lon="5.678973"><time>2026-05-08T01:02:30Z</time></trkpt>
</trkseg></trk>
<trk>
<name>lvili18</name>
<cmt>q</cmt>
<desc>Lixhe Chemin n°18 Place du Tige</desc>
<link href="https://chemins.be/lixhe/chemin/18"/><trkseg>
<trkpt lat="50.763348" lon="5.678973"><time>2026-05-08T01:02:30Z</time></trkpt>
<trkpt lat="50.763391" lon="5.679474"><time>2026-05-08T01:12:30Z</time></trkpt>
<trkpt lat="50.763578" lon="5.680139"><time>2026-05-08T01:22:30Z</time></trkpt>
</trkseg></trk>
<trk>
<name>lvili18</name>
<cmt>v</cmt>
<desc>Lixhe Chemin n°18 Place du Tige</desc>
<link href="https://chemins.be/lixhe/chemin/18"/><trkseg>
<trkpt lat="50.763578" lon="5.680139"><time>2026-05-08T01:22:30Z</time></trkpt>
<trkpt lat="50.763575" lon="5.680550"><time>2026-05-08T01:32:30Z</time></trkpt>
<trkpt lat="50.763664" lon="5.680808"><time>2026-05-08T01:42:30Z</time></trkpt>
<trkpt lat="50.763641" lon="5.681030"><time>2026-05-08T01:52:30Z</time></trkpt>
</trkseg>
</trk>
<trk>
<name>lvili19</name>
<cmt>s</cmt>
<desc>Lixhe Chemin n°19 </desc>
<link href="https://chemins.be/lixhe/chemin/19"/><trkseg>
<trkpt lat="50.751380" lon="5.674451"><time>2026-05-08T00:12:30Z</time></trkpt>
<trkpt lat="50.749859" lon="5.677176"><time>2026-05-08T00:22:30Z</time></trkpt>
</trkseg>
</trk>
<trk>
<name>lvili2</name>
<cmt>v</cmt>
<desc>Lixhe Chemin n°2 Rue du Château</desc>
<link href="https://chemins.be/lixhe/chemin/2"/><trkseg>
<trkpt lat="50.777303" lon="5.678912"><time>2026-05-08T00:12:30Z</time></trkpt>
<trkpt lat="50.776416" lon="5.677540"><time>2026-05-08T00:22:30Z</time></trkpt>
<trkpt lat="50.775578" lon="5.676502"><time>2026-05-08T00:32:30Z</time></trkpt>
<trkpt lat="50.775439" lon="5.676101"><time>2026-05-08T00:42:30Z</time></trkpt>
<trkpt lat="50.774757" lon="5.674918"><time>2026-05-08T00:52:30Z</time></trkpt>
<trkpt lat="50.774631" lon="5.675171"><time>2026-05-08T01:02:30Z</time></trkpt>
<trkpt lat="50.772457" lon="5.671778"><time>2026-05-08T01:12:30Z</time></trkpt>
<trkpt lat="50.771012" lon="5.669952"><time>2026-05-08T01:22:30Z</time></trkpt>
<trkpt lat="50.768361" lon="5.667386"><time>2026-05-08T01:32:30Z</time></trkpt>
</trkseg></trk>
<trk>
<name>lvili2</name>
<cmt>d</cmt>
<desc>Lixhe Chemin n°2 Rue du Château</desc>
<link href="https://chemins.be/lixhe/chemin/2"/><trkseg>
<trkpt lat="50.768361" lon="5.667386"><time>2026-05-08T01:32:30Z</time></trkpt>
<trkpt lat="50.766501" lon="5.665945"><time>2026-05-08T01:42:30Z</time></trkpt>
</trkseg></trk>
<trk>
<name>lvili2</name>
<cmt>q</cmt>
<desc>Lixhe Chemin n°2 Rue du Château</desc>
<link href="https://chemins.be/lixhe/chemin/2"/><trkseg>
<trkpt lat="50.766501" lon="5.665945"><time>2026-05-08T01:42:30Z</time></trkpt>
<trkpt lat="50.765463" lon="5.664979"><time>2026-05-08T01:52:30Z</time></trkpt>
<trkpt lat="50.763228" lon="5.663899"><time>2026-05-08T02:02:30Z</time></trkpt>
<trkpt lat="50.763117" lon="5.663327"><time>2026-05-08T02:12:30Z</time></trkpt>
<trkpt lat="50.760709" lon="5.661233"><time>2026-05-08T02:22:30Z</time></trkpt>
</trkseg></trk>
<trk>
<name>lvili2</name>
<cmt>r</cmt>
<desc>Lixhe Chemin n°2 Rue du Château</desc>
<link href="https://chemins.be/lixhe/chemin/2"/><trkseg>
<trkpt lat="50.760709" lon="5.661233"><time>2026-05-08T02:22:30Z</time></trkpt>
<trkpt lat="50.758745" lon="5.661197"><time>2026-05-08T02:32:30Z</time></trkpt>
</trkseg></trk>
<trk>
<name>lvili2</name>
<cmt>d</cmt>
<desc>Lixhe Chemin n°2 Rue du Château</desc>
<link href="https://chemins.be/lixhe/chemin/2"/><trkseg>
<trkpt lat="50.758745" lon="5.661197"><time>2026-05-08T02:32:30Z</time></trkpt>
<trkpt lat="50.758283" lon="5.661097"><time>2026-05-08T02:42:30Z</time></trkpt>
<trkpt lat="50.757842" lon="5.661107"><time>2026-05-08T02:52:30Z</time></trkpt>
<trkpt lat="50.757126" lon="5.661025"><time>2026-05-08T03:02:30Z</time></trkpt>
<trkpt lat="50.756619" lon="5.660719"><time>2026-05-08T03:12:30Z</time></trkpt>
<trkpt lat="50.755383" lon="5.660389"><time>2026-05-08T03:22:30Z</time></trkpt>
<trkpt lat="50.753682" lon="5.659130"><time>2026-05-08T03:32:30Z</time></trkpt>
<trkpt lat="50.753175" lon="5.659288"><time>2026-05-08T03:42:30Z</time></trkpt>
<trkpt lat="50.753048" lon="5.659667"><time>2026-05-08T03:52:30Z</time></trkpt>
</trkseg></trk>
<trk>
<name>lvili2</name>
<cmt>r</cmt>
<desc>Lixhe Chemin n°2 Rue du Château</desc>
<link href="https://chemins.be/lixhe/chemin/2"/><trkseg>
<trkpt lat="50.753048" lon="5.659667"><time>2026-05-08T03:52:30Z</time></trkpt>
<trkpt lat="50.752700" lon="5.662156"><time>2026-05-08T04:02:30Z</time></trkpt>
</trkseg>
</trk>
<trk>
<name>lvili23</name>
<cmt>q</cmt>
<desc>Lixhe Chemin n°23 </desc>
<link href="https://chemins.be/lixhe/chemin/23"/><trkseg>
<trkpt lat="50.759872" lon="5.671749"><time>2026-05-08T00:12:30Z</time></trkpt>
<trkpt lat="50.760591" lon="5.673444"><time>2026-05-08T00:22:30Z</time></trkpt>
<trkpt lat="50.761512" lon="5.674631"><time>2026-05-08T00:32:30Z</time></trkpt>
</trkseg></trk>
<trk>
<name>lvili23</name>
<cmt>s</cmt>
<desc>Lixhe Chemin n°23 </desc>
<link href="https://chemins.be/lixhe/chemin/23"/><trkseg>
<trkpt lat="50.761512" lon="5.674631"><time>2026-05-08T00:32:30Z</time></trkpt>
<trkpt lat="50.762904" lon="5.676427"><time>2026-05-08T00:42:30Z</time></trkpt>
</trkseg>
</trk>
<trk>
<name>lvili26</name>
<cmt>r</cmt>
<desc>Lixhe Chemin n°26 </desc>
<link href="https://chemins.be/lixhe/chemin/26"/><trkseg>
<trkpt lat="50.764292" lon="5.682088"><time>2026-05-08T00:12:30Z</time></trkpt>
<trkpt lat="50.763930" lon="5.682932"><time>2026-05-08T00:22:30Z</time></trkpt>
<trkpt lat="50.763760" lon="5.683476"><time>2026-05-08T00:32:30Z</time></trkpt>
</trkseg>
</trk>
<trk>
<name>lvili3</name>
<cmt>s</cmt>
<desc>Lixhe Chemin n°3 </desc>
<link href="https://chemins.be/lixhe/chemin/3"/><trkseg>
<trkpt lat="50.752502" lon="5.649866"><time>2026-05-08T00:12:30Z</time></trkpt>
<trkpt lat="50.753912" lon="5.651717"><time>2026-05-08T00:22:30Z</time></trkpt>
<trkpt lat="50.760791" lon="5.656757"><time>2026-05-08T00:32:30Z</time></trkpt>
</trkseg></trk>
<trk>
<name>lvili3</name>
<cmt>v</cmt>
<desc>Lixhe Chemin n°3 </desc>
<link href="https://chemins.be/lixhe/chemin/3"/><trkseg>
<trkpt lat="50.760791" lon="5.656757"><time>2026-05-08T00:32:30Z</time></trkpt>
<trkpt lat="50.760819" lon="5.658048"><time>2026-05-08T00:42:30Z</time></trkpt>
<trkpt lat="50.761128" lon="5.658208"><time>2026-05-08T00:52:30Z</time></trkpt>
<trkpt lat="50.762230" lon="5.658463"><time>2026-05-08T01:02:30Z</time></trkpt>
<trkpt lat="50.764357" lon="5.660405"><time>2026-05-08T01:12:30Z</time></trkpt>
<trkpt lat="50.764740" lon="5.660505"><time>2026-05-08T01:22:30Z</time></trkpt>
</trkseg></trk>
<trk>
<name>lvili3</name>
<cmt>d</cmt>
<desc>Lixhe Chemin n°3 </desc>
<link href="https://chemins.be/lixhe/chemin/3"/><trkseg>
<trkpt lat="50.764740" lon="5.660505"><time>2026-05-08T01:22:30Z</time></trkpt>
<trkpt lat="50.765038" lon="5.661292"><time>2026-05-08T01:32:30Z</time></trkpt>
<trkpt lat="50.767501" lon="5.663799"><time>2026-05-08T01:42:30Z</time></trkpt>
</trkseg></trk>
<trk>
<name>lvili3</name>
<cmt>v</cmt>
<desc>Lixhe Chemin n°3 </desc>
<link href="https://chemins.be/lixhe/chemin/3"/><trkseg>
<trkpt lat="50.767501" lon="5.663799"><time>2026-05-08T01:42:30Z</time></trkpt>
<trkpt lat="50.767759" lon="5.664299"><time>2026-05-08T01:52:30Z</time></trkpt>
<trkpt lat="50.768207" lon="5.664707"><time>2026-05-08T02:02:30Z</time></trkpt>
<trkpt lat="50.769952" lon="5.666778"><time>2026-05-08T02:12:30Z</time></trkpt>
<trkpt lat="50.771404" lon="5.668001"><time>2026-05-08T02:22:30Z</time></trkpt>
<trkpt lat="50.775933" lon="5.672250"><time>2026-05-08T02:32:30Z</time></trkpt>
<trkpt lat="50.776706" lon="5.672761"><time>2026-05-08T02:42:30Z</time></trkpt>
<trkpt lat="50.777441" lon="5.673011"><time>2026-05-08T02:52:30Z</time></trkpt>
</trkseg>
</trk>
<trk>
<name>lvili33</name>
<cmt>v</cmt>
<desc>Lixhe Chemin/sentier n°33 Quai du Barrage / Rue de la Digue</desc>
<link href="https://chemins.be/lixhe/chemin/33"/><trkseg>
<trkpt lat="50.752531" lon="5.682866"><time>2026-05-08T00:12:30Z</time></trkpt>
<trkpt lat="50.751662" lon="5.682737"><time>2026-05-08T00:22:30Z</time></trkpt>
</trkseg></trk>
<trk>
<name>lvili33</name>
<cmt>d</cmt>
<desc>Lixhe Chemin/sentier n°33 Quai du Barrage / Rue de la Digue</desc>
<link href="https://chemins.be/lixhe/chemin/33"/><trkseg>
<trkpt lat="50.751662" lon="5.682737"><time>2026-05-08T00:22:30Z</time></trkpt>
<trkpt lat="50.751223" lon="5.682995"><time>2026-05-08T00:32:30Z</time></trkpt>
<trkpt lat="50.750398" lon="5.683748"><time>2026-05-08T00:42:30Z</time></trkpt>
</trkseg></trk>
<trk>
<name>lvili33</name>
<cmt>q</cmt>
<desc>Lixhe Chemin/sentier n°33 Quai du Barrage / Rue de la Digue</desc>
<link href="https://chemins.be/lixhe/chemin/33"/><trkseg>
<trkpt lat="50.750398" lon="5.683748"><time>2026-05-08T00:42:30Z</time></trkpt>
<trkpt lat="50.747729" lon="5.685026"><time>2026-05-08T00:52:30Z</time></trkpt>
<trkpt lat="50.747490" lon="5.684636"><time>2026-05-08T01:02:30Z</time></trkpt>
</trkseg></trk>
<trk>
<name>lvili33</name>
<cmt>r</cmt>
<desc>Lixhe Chemin/sentier n°33 Quai du Barrage / Rue de la Digue</desc>
<link href="https://chemins.be/lixhe/chemin/33"/><trkseg>
<trkpt lat="50.747490" lon="5.684636"><time>2026-05-08T01:02:30Z</time></trkpt>
<trkpt lat="50.746142" lon="5.682985"><time>2026-05-08T01:12:30Z</time></trkpt>
<trkpt lat="50.745773" lon="5.682209"><time>2026-05-08T01:22:30Z</time></trkpt>
</trkseg></trk>
<trk>
<name>lvili33</name>
<cmt>s</cmt>
<desc>Lixhe Chemin/sentier n°33 Quai du Barrage / Rue de la Digue</desc>
<link href="https://chemins.be/lixhe/chemin/33"/><trkseg>
<trkpt lat="50.745773" lon="5.682209"><time>2026-05-08T01:22:30Z</time></trkpt>
<trkpt lat="50.744489" lon="5.679426"><time>2026-05-08T01:32:30Z</time></trkpt>
</trkseg>
</trk>
<trk>
<name>lvili34</name>
<cmt>r</cmt>
<desc>Lixhe Chemin n°34 Rue Mathey</desc>
<link href="https://chemins.be/lixhe/chemin/34"/><trkseg>
<trkpt lat="50.766965" lon="5.685251"><time>2026-05-08T00:12:30Z</time></trkpt>
<trkpt lat="50.767258" lon="5.684820"><time>2026-05-08T00:22:30Z</time></trkpt>
</trkseg></trk>
<trk>
<name>lvili34</name>
<cmt>v</cmt>
<desc>Lixhe Chemin n°34 Rue Mathey</desc>
<link href="https://chemins.be/lixhe/chemin/34"/><trkseg>
<trkpt lat="50.767258" lon="5.684820"><time>2026-05-08T00:22:30Z</time></trkpt>
<trkpt lat="50.767523" lon="5.683608"><time>2026-05-08T00:32:30Z</time></trkpt>
</trkseg>
</trk>
<trk>
<name>lvili35</name>
<cmt>v</cmt>
<desc>Lixhe Chemin n°35 Rue des Massons / Rue de Liege</desc>
<link href="https://chemins.be/lixhe/chemin/35"/><trkseg>
<trkpt lat="50.766648" lon="5.685094"><time>2026-05-08T00:12:30Z</time></trkpt>
<trkpt lat="50.767541" lon="5.683679"><time>2026-05-08T00:22:30Z</time></trkpt>
</trkseg>
</trk>
<trk>
<name>lvili36</name>
<cmt>s</cmt>
<desc>Lixhe Chemin n°36 </desc>
<link href="https://chemins.be/lixhe/chemin/36"/><trkseg>
<trkpt lat="50.763484" lon="5.678902"><time>2026-05-08T00:12:30Z</time></trkpt>
<trkpt lat="50.766370" lon="5.673265"><time>2026-05-08T00:22:30Z</time></trkpt>
</trkseg>
</trk>
<trk>
<name>lvili37</name>
<cmt>v</cmt>
<desc>Lixhe Sentier n°37 </desc>
<link href="https://chemins.be/lixhe/sentier/37"/><trkseg>
<trkpt lat="50.767514" lon="5.683622"><time>2026-05-08T00:12:30Z</time></trkpt>
<trkpt lat="50.767764" lon="5.683005"><time>2026-05-08T00:22:30Z</time></trkpt>
</trkseg></trk>
<trk>
<name>lvili37</name>
<cmt>q</cmt>
<desc>Lixhe Sentier n°37 </desc>
<link href="https://chemins.be/lixhe/sentier/37"/><trkseg>
<trkpt lat="50.767764" lon="5.683005"><time>2026-05-08T00:22:30Z</time></trkpt>
<trkpt lat="50.768298" lon="5.681914"><time>2026-05-08T00:32:30Z</time></trkpt>
</trkseg></trk>
<trk>
<name>lvili37</name>
<cmt>s</cmt>
<desc>Lixhe Sentier n°37 </desc>
<link href="https://chemins.be/lixhe/sentier/37"/><trkseg>
<trkpt lat="50.768298" lon="5.681914"><time>2026-05-08T00:32:30Z</time></trkpt>
<trkpt lat="50.768977" lon="5.679849"><time>2026-05-08T00:42:30Z</time></trkpt>
</trkseg></trk>
<trk>
<name>lvili37</name>
<cmt>d</cmt>
<desc>Lixhe Sentier n°37 </desc>
<link href="https://chemins.be/lixhe/sentier/37"/><trkseg>
<trkpt lat="50.768977" lon="5.679849"><time>2026-05-08T00:42:30Z</time></trkpt>
<trkpt lat="50.770833" lon="5.675477"><time>2026-05-08T00:52:30Z</time></trkpt>
</trkseg></trk>
<trk>
<name>lvili37</name>
<cmt>q</cmt>
<desc>Lixhe Sentier n°37 </desc>
<link href="https://chemins.be/lixhe/sentier/37"/><trkseg>
<trkpt lat="50.770833" lon="5.675477"><time>2026-05-08T00:52:30Z</time></trkpt>
<trkpt lat="50.771154" lon="5.674947"><time>2026-05-08T01:02:30Z</time></trkpt>
<trkpt lat="50.770424" lon="5.673639"><time>2026-05-08T01:12:30Z</time></trkpt>
<trkpt lat="50.769965" lon="5.673121"><time>2026-05-08T01:22:30Z</time></trkpt>
</trkseg></trk>
<trk>
<name>lvili37</name>
<cmt>d</cmt>
<desc>Lixhe Sentier n°37 </desc>
<link href="https://chemins.be/lixhe/sentier/37"/><trkseg>
<trkpt lat="50.769965" lon="5.673121"><time>2026-05-08T01:22:30Z</time></trkpt>
<trkpt lat="50.769716" lon="5.672427"><time>2026-05-08T01:32:30Z</time></trkpt>
<trkpt lat="50.769345" lon="5.672008"><time>2026-05-08T01:42:30Z</time></trkpt>
<trkpt lat="50.768721" lon="5.671340"><time>2026-05-08T01:52:30Z</time></trkpt>
<trkpt lat="50.767267" lon="5.670530"><time>2026-05-08T02:02:30Z</time></trkpt>
</trkseg>
</trk>
<trk>
<name>lvili38</name>
<cmt>v</cmt>
<desc>Lixhe Chemin n°38 </desc>
<link href="https://chemins.be/lixhe/chemin/38"/><trkseg>
<trkpt lat="50.765971" lon="5.668616"><time>2026-05-08T00:12:30Z</time></trkpt>
<trkpt lat="50.764840" lon="5.669110"><time>2026-05-08T00:22:30Z</time></trkpt>
</trkseg></trk>
<trk>
<name>lvili38</name>
<cmt>s</cmt>
<desc>Lixhe Chemin n°38 </desc>
<link href="https://chemins.be/lixhe/chemin/38"/><trkseg>
<trkpt lat="50.764840" lon="5.669110"><time>2026-05-08T00:22:30Z</time></trkpt>
<trkpt lat="50.762935" lon="5.670140"><time>2026-05-08T00:32:30Z</time></trkpt>
<trkpt lat="50.762334" lon="5.670358"><time>2026-05-08T00:42:30Z</time></trkpt>
</trkseg></trk>
<trk>
<name>lvili38</name>
<cmt>q</cmt>
<desc>Lixhe Chemin n°38 </desc>
<link href="https://chemins.be/lixhe/chemin/38"/><trkseg>
<trkpt lat="50.762334" lon="5.670358"><time>2026-05-08T00:42:30Z</time></trkpt>
<trkpt lat="50.759881" lon="5.671627"><time>2026-05-08T00:52:30Z</time></trkpt>
</trkseg>
</trk>
<trk>
<name>lvili39</name>
<cmt>v</cmt>
<desc>Lixhe Chemin n°39 </desc>
<link href="https://chemins.be/lixhe/chemin/39"/><trkseg>
<trkpt lat="50.756239" lon="5.662275"><time>2026-05-08T00:12:30Z</time></trkpt>
<trkpt lat="50.756349" lon="5.661824"><time>2026-05-08T00:22:30Z</time></trkpt>
<trkpt lat="50.756412" lon="5.661438"><time>2026-05-08T00:32:30Z</time></trkpt>
<trkpt lat="50.756612" lon="5.660744"><time>2026-05-08T00:42:30Z</time></trkpt>
</trkseg>
</trk>
<trk>
<name>lvili4</name>
<cmt>s</cmt>
<desc>Lixhe Chemin n°4 </desc>
<link href="https://chemins.be/lixhe/chemin/4"/><trkseg>
<trkpt lat="50.763439" lon="5.678973"><time>2026-05-08T00:12:30Z</time></trkpt>
<trkpt lat="50.763945" lon="5.679188"><time>2026-05-08T00:22:30Z</time></trkpt>
<trkpt lat="50.764923" lon="5.680389"><time>2026-05-08T00:32:30Z</time></trkpt>
<trkpt lat="50.765891" lon="5.680332"><time>2026-05-08T00:42:30Z</time></trkpt>
<trkpt lat="50.769587" lon="5.684273"><time>2026-05-08T00:52:30Z</time></trkpt>
</trkseg></trk>
<trk>
<name>lvili4</name>
<cmt>v</cmt>
<desc>Lixhe Chemin n°4 </desc>
<link href="https://chemins.be/lixhe/chemin/4"/><trkseg>
<trkpt lat="50.769587" lon="5.684273"><time>2026-05-08T00:52:30Z</time></trkpt>
<trkpt lat="50.770997" lon="5.685403"><time>2026-05-08T01:02:30Z</time></trkpt>
</trkseg>
</trk>
<trk>
<name>lvili40</name>
<cmt>d</cmt>
<desc>Lixhe Sentier n°40 Rue Vieille Tour / Rue aux Chevaux</desc>
<link href="https://chemins.be/lixhe/sentier/40"/><trkseg>
<trkpt lat="50.751793" lon="5.682744"><time>2026-05-08T00:12:30Z</time></trkpt>
<trkpt lat="50.752009" lon="5.682324"><time>2026-05-08T00:22:30Z</time></trkpt>
</trkseg></trk>
<trk>
<name>lvili40</name>
<cmt>v</cmt>
<desc>Lixhe Sentier n°40 Rue Vieille Tour / Rue aux Chevaux</desc>
<link href="https://chemins.be/lixhe/sentier/40"/><trkseg>
<trkpt lat="50.752009" lon="5.682324"><time>2026-05-08T00:22:30Z</time></trkpt>
<trkpt lat="50.752223" lon="5.682186"><time>2026-05-08T00:32:30Z</time></trkpt>
<trkpt lat="50.752074" lon="5.681736"><time>2026-05-08T00:42:30Z</time></trkpt>
<trkpt lat="50.752754" lon="5.681539"><time>2026-05-08T00:52:30Z</time></trkpt>
<trkpt lat="50.752754" lon="5.681172"><time>2026-05-08T01:02:30Z</time></trkpt>
</trkseg></trk>
<trk>
<name>lvili40</name>
<cmt>r</cmt>
<desc>Lixhe Sentier n°40 Rue Vieille Tour / Rue aux Chevaux</desc>
<link href="https://chemins.be/lixhe/sentier/40"/><trkseg>
<trkpt lat="50.752754" lon="5.681172"><time>2026-05-08T01:02:30Z</time></trkpt>
<trkpt lat="50.753071" lon="5.681147"><time>2026-05-08T01:12:30Z</time></trkpt>
</trkseg></trk>
<trk>
<name>lvili40</name>
<cmt>v</cmt>
<desc>Lixhe Sentier n°40 Rue Vieille Tour / Rue aux Chevaux</desc>
<link href="https://chemins.be/lixhe/sentier/40"/><trkseg>
<trkpt lat="50.753071" lon="5.681147"><time>2026-05-08T01:12:30Z</time></trkpt>
<trkpt lat="50.754007" lon="5.681172"><time>2026-05-08T01:22:30Z</time></trkpt>
<trkpt lat="50.754026" lon="5.680946"><time>2026-05-08T01:32:30Z</time></trkpt>
<trkpt lat="50.754680" lon="5.681132"><time>2026-05-08T01:42:30Z</time></trkpt>
</trkseg>
</trk>
<trk>
<name>lvili41</name>
<cmt>r</cmt>
<desc>Lixhe Sentier n°41 Rue Vieille Tour</desc>
<link href="https://chemins.be/lixhe/sentier/41"/><trkseg>
<trkpt lat="50.753304" lon="5.679273"><time>2026-05-08T00:12:30Z</time></trkpt>
<trkpt lat="50.753151" lon="5.679541"><time>2026-05-08T00:22:30Z</time></trkpt>
<trkpt lat="50.753087" lon="5.681161"><time>2026-05-08T00:32:30Z</time></trkpt>
</trkseg></trk>
<trk>
<name>lvili41</name>
<cmt>v</cmt>
<desc>Lixhe Sentier n°41 Rue Vieille Tour</desc>
<link href="https://chemins.be/lixhe/sentier/41"/><trkseg>
<trkpt lat="50.753087" lon="5.681161"><time>2026-05-08T00:32:30Z</time></trkpt>
<trkpt lat="50.753085" lon="5.681929"><time>2026-05-08T00:42:30Z</time></trkpt>
<trkpt lat="50.753127" lon="5.682593"><time>2026-05-08T00:52:30Z</time></trkpt>
</trkseg>
</trk>
<trk>
<name>lvili42</name>
<cmt>q</cmt>
<desc>Lixhe Sentier n°42 </desc>
<link href="https://chemins.be/lixhe/sentier/42"/><trkseg>
<trkpt lat="50.754765" lon="5.678699"><time>2026-05-08T00:12:30Z</time></trkpt>
<trkpt lat="50.755017" lon="5.677036"><time>2026-05-08T00:22:30Z</time></trkpt>
</trkseg></trk>
<trk>
<name>lvili42</name>
<cmt>s</cmt>
<desc>Lixhe Sentier n°42 </desc>
<link href="https://chemins.be/lixhe/sentier/42"/><trkseg>
<trkpt lat="50.755017" lon="5.677036"><time>2026-05-08T00:22:30Z</time></trkpt>
<trkpt lat="50.755104" lon="5.676459"><time>2026-05-08T00:32:30Z</time></trkpt>
<trkpt lat="50.754643" lon="5.673970"><time>2026-05-08T00:42:30Z</time></trkpt>
<trkpt lat="50.755130" lon="5.670335"><time>2026-05-08T00:52:30Z</time></trkpt>
<trkpt lat="50.754619" lon="5.667394"><time>2026-05-08T01:02:30Z</time></trkpt>
<trkpt lat="50.754227" lon="5.666010"><time>2026-05-08T01:12:30Z</time></trkpt>
<trkpt lat="50.753874" lon="5.665141"><time>2026-05-08T01:22:30Z</time></trkpt>
</trkseg>
</trk>
<trk>
<name>lvili43</name>
<cmt>q</cmt>
<desc>Lixhe Sentier n°43 </desc>
<link href="https://chemins.be/lixhe/sentier/43"/><trkseg>
<trkpt lat="50.760283" lon="5.662658"><time>2026-05-08T00:12:30Z</time></trkpt>
<trkpt lat="50.759143" lon="5.664163"><time>2026-05-08T00:22:30Z</time></trkpt>
<trkpt lat="50.757122" lon="5.666831"><time>2026-05-08T00:32:30Z</time></trkpt>
<trkpt lat="50.756107" lon="5.668170"><time>2026-05-08T00:42:30Z</time></trkpt>
</trkseg></trk>
<trk>
<name>lvili43</name>
<cmt>v</cmt>
<desc>Lixhe Sentier n°43 </desc>
<link href="https://chemins.be/lixhe/sentier/43"/><trkseg>
<trkpt lat="50.756107" lon="5.668170"><time>2026-05-08T00:42:30Z</time></trkpt>
<trkpt lat="50.755783" lon="5.669707"><time>2026-05-08T00:52:30Z</time></trkpt>
</trkseg></trk>
<trk>
<name>lvili43</name>
<cmt>q</cmt>
<desc>Lixhe Sentier n°43 </desc>
<link href="https://chemins.be/lixhe/sentier/43"/><trkseg>
<trkpt lat="50.755783" lon="5.669707"><time>2026-05-08T00:52:30Z</time></trkpt>
<trkpt lat="50.755350" lon="5.670237"><time>2026-05-08T01:02:30Z</time></trkpt>
</trkseg></trk>
<trk>
<name>lvili43</name>
<cmt>s</cmt>
<desc>Lixhe Sentier n°43 </desc>
<link href="https://chemins.be/lixhe/sentier/43"/><trkseg>
<trkpt lat="50.755350" lon="5.670237"><time>2026-05-08T01:02:30Z</time></trkpt>
<trkpt lat="50.755104" lon="5.670537"><time>2026-05-08T01:12:30Z</time></trkpt>
<trkpt lat="50.754611" lon="5.674071"><time>2026-05-08T01:22:30Z</time></trkpt>
<trkpt lat="50.754320" lon="5.676121"><time>2026-05-08T01:32:30Z</time></trkpt>
<trkpt lat="50.754088" lon="5.677094"><time>2026-05-08T01:42:30Z</time></trkpt>
</trkseg></trk>
<trk>
<name>lvili43</name>
<cmt>q</cmt>
<desc>Lixhe Sentier n°43 </desc>
<link href="https://chemins.be/lixhe/sentier/43"/><trkseg>
<trkpt lat="50.754088" lon="5.677094"><time>2026-05-08T01:42:30Z</time></trkpt>
<trkpt lat="50.753809" lon="5.678260"><time>2026-05-08T01:52:30Z</time></trkpt>
</trkseg>
</trk>
<trk>
<name>lvili43bis</name>
<cmt>v</cmt>
<desc>Lixhe Sentier n°43bis </desc>
<link href="https://chemins.be/lixhe/sentier/43bis"/><trkseg>
<trkpt lat="50.756236" lon="5.667518"><time>2026-05-08T00:12:30Z</time></trkpt>
<trkpt lat="50.756109" lon="5.668170"><time>2026-05-08T00:22:30Z</time></trkpt>
</trkseg>
</trk>
<trk>
<name>lvili44</name>
<cmt>q</cmt>
<desc>Lixhe Sentier n°44 </desc>
<link href="https://chemins.be/lixhe/sentier/44"/><trkseg>
<trkpt lat="50.759837" lon="5.671567"><time>2026-05-08T00:12:30Z</time></trkpt>
<trkpt lat="50.756913" lon="5.674566"><time>2026-05-08T00:22:30Z</time></trkpt>
</trkseg></trk>
<trk>
<name>lvili44</name>
<cmt>s</cmt>
<desc>Lixhe Sentier n°44 </desc>
<link href="https://chemins.be/lixhe/sentier/44"/><trkseg>
<trkpt lat="50.756913" lon="5.674566"><time>2026-05-08T00:22:30Z</time></trkpt>
<trkpt lat="50.755095" lon="5.676430"><time>2026-05-08T00:32:30Z</time></trkpt>
<trkpt lat="50.754298" lon="5.676114"><time>2026-05-08T00:42:30Z</time></trkpt>
<trkpt lat="50.752845" lon="5.675570"><time>2026-05-08T00:52:30Z</time></trkpt>
<trkpt lat="50.752076" lon="5.674776"><time>2026-05-08T01:02:30Z</time></trkpt>
<trkpt lat="50.751720" lon="5.674115"><time>2026-05-08T01:12:30Z</time></trkpt>
</trkseg></trk>
<trk>
<name>lvili44</name>
<cmt>q</cmt>
<desc>Lixhe Sentier n°44 </desc>
<link href="https://chemins.be/lixhe/sentier/44"/><trkseg>
<trkpt lat="50.751720" lon="5.674115"><time>2026-05-08T01:12:30Z</time></trkpt>
<trkpt lat="50.748512" lon="5.672055"><time>2026-05-08T01:22:30Z</time></trkpt>
</trkseg>
</trk>
<trk>
<name>lvili45</name>
<cmt>q</cmt>
<desc>Lixhe Sentier n°45 </desc>
<link href="https://chemins.be/lixhe/sentier/45"/><trkseg>
<trkpt lat="50.761392" lon="5.680282"><time>2026-05-08T00:12:30Z</time></trkpt>
<trkpt lat="50.762315" lon="5.679324"><time>2026-05-08T00:22:30Z</time></trkpt>
<trkpt lat="50.763301" lon="5.679016"><time>2026-05-08T00:32:30Z</time></trkpt>
</trkseg>
</trk>
<trk>
<name>lvili46</name>
<cmt>s</cmt>
<desc>Lixhe Sentier n°46 </desc>
<link href="https://chemins.be/lixhe/sentier/46"/><trkseg>
<trkpt lat="50.768934" lon="5.679839"><time>2026-05-08T00:12:30Z</time></trkpt>
<trkpt lat="50.767446" lon="5.680647"><time>2026-05-08T00:22:30Z</time></trkpt>
<trkpt lat="50.766022" lon="5.680481"><time>2026-05-08T00:32:30Z</time></trkpt>
</trkseg></trk>
<trk>
<name>lvili46</name>
<cmt>q</cmt>
<desc>Lixhe Sentier n°46 </desc>
<link href="https://chemins.be/lixhe/sentier/46"/><trkseg>
<trkpt lat="50.766022" lon="5.680481"><time>2026-05-08T00:32:30Z</time></trkpt>
<trkpt lat="50.764746" lon="5.681224"><time>2026-05-08T00:42:30Z</time></trkpt>
</trkseg>
</trk>
<trk>
<name>lvili46bis</name>
<cmt>q</cmt>
<desc>Lixhe Sentier n°46bis </desc>
<link href="https://chemins.be/lixhe/sentier/46bis"/><trkseg>
<trkpt lat="50.764615" lon="5.681529"><time>2026-05-08T00:12:30Z</time></trkpt>
<trkpt lat="50.765311" lon="5.680068"><time>2026-05-08T00:22:30Z</time></trkpt>
</trkseg></trk>
<trk>
<name>lvili46bis</name>
<cmt>s</cmt>
<desc>Lixhe Sentier n°46bis </desc>
<link href="https://chemins.be/lixhe/sentier/46bis"/><trkseg>
<trkpt lat="50.765311" lon="5.680068"><time>2026-05-08T00:22:30Z</time></trkpt>
<trkpt lat="50.766217" lon="5.678166"><time>2026-05-08T00:32:30Z</time></trkpt>
<trkpt lat="50.767805" lon="5.674830"><time>2026-05-08T00:42:30Z</time></trkpt>
<trkpt lat="50.767425" lon="5.674519"><time>2026-05-08T00:52:30Z</time></trkpt>
<trkpt lat="50.768986" lon="5.671644"><time>2026-05-08T01:02:30Z</time></trkpt>
</trkseg>
</trk>
<trk>
<name>lvili47</name>
<cmt>q</cmt>
<desc>Lixhe Sentier n°47 </desc>
<link href="https://chemins.be/lixhe/sentier/47"/><trkseg>
<trkpt lat="50.764912" lon="5.660956"><time>2026-05-08T00:12:30Z</time></trkpt>
<trkpt lat="50.766124" lon="5.660806"><time>2026-05-08T00:22:30Z</time></trkpt>
<trkpt lat="50.768667" lon="5.662293"><time>2026-05-08T00:32:30Z</time></trkpt>
<trkpt lat="50.771345" lon="5.663037"><time>2026-05-08T00:42:30Z</time></trkpt>
</trkseg>
</trk>
<trk>
<name>lvili48</name>
<cmt>s</cmt>
<desc>Lixhe Sentier n°48 </desc>
<link href="https://chemins.be/lixhe/sentier/48"/><trkseg>
<trkpt lat="50.753092" lon="5.681094"><time>2026-05-08T00:12:30Z</time></trkpt>
<trkpt lat="50.751979" lon="5.680149"><time>2026-05-08T00:22:30Z</time></trkpt>
</trkseg></trk>
<trk>
<name>lvili48</name>
<cmt>q</cmt>
<desc>Lixhe Sentier n°48 </desc>
<link href="https://chemins.be/lixhe/sentier/48"/><trkseg>
<trkpt lat="50.751979" lon="5.680149"><time>2026-05-08T00:22:30Z</time></trkpt>
<trkpt lat="50.751369" lon="5.679631"><time>2026-05-08T00:32:30Z</time></trkpt>
<trkpt lat="50.750883" lon="5.679048"><time>2026-05-08T00:42:30Z</time></trkpt>
<trkpt lat="50.750036" lon="5.677554"><time>2026-05-08T00:52:30Z</time></trkpt>
</trkseg></trk>
<trk>
<name>lvili48</name>
<cmt>s</cmt>
<desc>Lixhe Sentier n°48 </desc>
<link href="https://chemins.be/lixhe/sentier/48"/><trkseg>
<trkpt lat="50.750036" lon="5.677554"><time>2026-05-08T00:52:30Z</time></trkpt>
<trkpt lat="50.749824" lon="5.677202"><time>2026-05-08T01:02:30Z</time></trkpt>
</trkseg>
</trk>
<trk>
<name>lvili49</name>
<cmt>v</cmt>
<desc>Lixhe Sentier n°49 </desc>
<link href="https://chemins.be/lixhe/sentier/49"/><trkseg>
<trkpt lat="50.771218" lon="5.667854"><time>2026-05-08T00:12:30Z</time></trkpt>
<trkpt lat="50.771092" lon="5.668058"><time>2026-05-08T00:22:30Z</time></trkpt>
<trkpt lat="50.770701" lon="5.667942"><time>2026-05-08T00:32:30Z</time></trkpt>
<trkpt lat="50.769461" lon="5.667385"><time>2026-05-08T00:42:30Z</time></trkpt>
<trkpt lat="50.768563" lon="5.667307"><time>2026-05-08T00:52:30Z</time></trkpt>
<trkpt lat="50.768346" lon="5.667393"><time>2026-05-08T01:02:30Z</time></trkpt>
<trkpt lat="50.765895" lon="5.668666"><time>2026-05-08T01:12:30Z</time></trkpt>
</trkseg>
</trk>
<trk>
<name>lvili49bis</name>
<cmt>q</cmt>
<desc>Lixhe Sentier n°49bis </desc>
<link href="https://chemins.be/lixhe/sentier/49bis"/><trkseg>
<trkpt lat="50.768307" lon="5.667395"><time>2026-05-08T00:12:30Z</time></trkpt>
<trkpt lat="50.767215" lon="5.670463"><time>2026-05-08T00:22:30Z</time></trkpt>
</trkseg></trk>
<trk>
<name>lvili49bis</name>
<cmt>s</cmt>
<desc>Lixhe Sentier n°49bis </desc>
<link href="https://chemins.be/lixhe/sentier/49bis"/><trkseg>
<trkpt lat="50.767215" lon="5.670463"><time>2026-05-08T00:22:30Z</time></trkpt>
<trkpt lat="50.766088" lon="5.672888"><time>2026-05-08T00:32:30Z</time></trkpt>
<trkpt lat="50.766326" lon="5.673146"><time>2026-05-08T00:42:30Z</time></trkpt>
</trkseg>
</trk>
<trk>
<name>lvili5</name>
<cmt>s</cmt>
<desc>Lixhe Chemin n°5 </desc>
<link href="https://chemins.be/lixhe/chemin/5"/><trkseg>
<trkpt lat="50.749828" lon="5.677224"><time>2026-05-08T00:12:30Z</time></trkpt>
<trkpt lat="50.748624" lon="5.674807"><time>2026-05-08T00:22:30Z</time></trkpt>
</trkseg></trk>
<trk>
<name>lvili5</name>
<cmt>d</cmt>
<desc>Lixhe Chemin n°5 </desc>
<link href="https://chemins.be/lixhe/chemin/5"/><trkseg>
<trkpt lat="50.748624" lon="5.674807"><time>2026-05-08T00:22:30Z</time></trkpt>
<trkpt lat="50.748271" lon="5.672639"><time>2026-05-08T00:32:30Z</time></trkpt>
<trkpt lat="50.747828" lon="5.671431"><time>2026-05-08T00:42:30Z</time></trkpt>
<trkpt lat="50.747276" lon="5.670482"><time>2026-05-08T00:52:30Z</time></trkpt>
</trkseg></trk>
<trk>
<name>lvili5</name>
<cmt>s</cmt>
<desc>Lixhe Chemin n°5 </desc>
<link href="https://chemins.be/lixhe/chemin/5"/><trkseg>
<trkpt lat="50.747276" lon="5.670482"><time>2026-05-08T00:52:30Z</time></trkpt>
<trkpt lat="50.746705" lon="5.669500"><time>2026-05-08T01:02:30Z</time></trkpt>
</trkseg>
</trk>
<trk>
<name>lvili51</name>
<cmt>v</cmt>
<desc>Lixhe Sentier n°51 </desc>
<link href="https://chemins.be/lixhe/sentier/51"/><trkseg>
<trkpt lat="50.747502" lon="5.684599"><time>2026-05-08T00:12:30Z</time></trkpt>
<trkpt lat="50.748072" lon="5.684244"><time>2026-05-08T00:22:30Z</time></trkpt>
</trkseg></trk>
<trk>
<name>lvili51</name>
<cmt>q</cmt>
<desc>Lixhe Sentier n°51 </desc>
<link href="https://chemins.be/lixhe/sentier/51"/><trkseg>
<trkpt lat="50.748072" lon="5.684244"><time>2026-05-08T00:22:30Z</time></trkpt>
<trkpt lat="50.751258" lon="5.682510"><time>2026-05-08T00:32:30Z</time></trkpt>
</trkseg>
</trk>
<trk>
<name>lvili52</name>
<cmt>q</cmt>
<desc>Lixhe Sentier n°52 </desc>
<link href="https://chemins.be/lixhe/sentier/52"/><trkseg>
<trkpt lat="50.760741" lon="5.661079"><time>2026-05-08T00:12:30Z</time></trkpt>
<trkpt lat="50.760768" lon="5.660600"><time>2026-05-08T00:22:30Z</time></trkpt>
<trkpt lat="50.760392" lon="5.660157"><time>2026-05-08T00:32:30Z</time></trkpt>
<trkpt lat="50.759664" lon="5.657975"><time>2026-05-08T00:42:30Z</time></trkpt>
<trkpt lat="50.759402" lon="5.655794"><time>2026-05-08T00:52:30Z</time></trkpt>
<trkpt lat="50.759214" lon="5.653791"><time>2026-05-08T01:02:30Z</time></trkpt>
</trkseg>
</trk>
<trk>
<name>lvili53</name>
<cmt>q</cmt>
<desc>Lixhe Sentier n°53 </desc>
<link href="https://chemins.be/lixhe/sentier/53"/><trkseg>
<trkpt lat="50.753154" lon="5.659257"><time>2026-05-08T00:12:30Z</time></trkpt>
<trkpt lat="50.750321" lon="5.658756"><time>2026-05-08T00:22:30Z</time></trkpt>
</trkseg>
</trk>
<trk>
<name>lvili54</name>
<cmt>q</cmt>
<desc>Lixhe Sentier n°54 </desc>
<link href="https://chemins.be/lixhe/sentier/54"/><trkseg>
<trkpt lat="50.758272" lon="5.662297"><time>2026-05-08T00:12:30Z</time></trkpt>
<trkpt lat="50.758660" lon="5.662522"><time>2026-05-08T00:22:30Z</time></trkpt>
<trkpt lat="50.758552" lon="5.663939"><time>2026-05-08T00:32:30Z</time></trkpt>
</trkseg>
</trk>
<trk>
<name>lvili56</name>
<cmt>q</cmt>
<desc>Lixhe Sentier n°56 </desc>
<link href="https://chemins.be/lixhe/sentier/56"/><trkseg>
<trkpt lat="50.754725" lon="5.680860"><time>2026-05-08T00:12:30Z</time></trkpt>
<trkpt lat="50.755888" lon="5.680688"><time>2026-05-08T00:22:30Z</time></trkpt>
</trkseg>
</trk>
<trk>
<name>lvili57</name>
<cmt>q</cmt>
<desc>Lixhe Sentier n°57 </desc>
<link href="https://chemins.be/lixhe/sentier/57"/><trkseg>
<trkpt lat="50.755050" lon="5.665202"><time>2026-05-08T00:12:30Z</time></trkpt>
<trkpt lat="50.754824" lon="5.666671"><time>2026-05-08T00:22:30Z</time></trkpt>
</trkseg></trk>
<trk>
<name>lvili57</name>
<cmt>s</cmt>
<desc>Lixhe Sentier n°57 </desc>
<link href="https://chemins.be/lixhe/sentier/57"/><trkseg>
<trkpt lat="50.754824" lon="5.666671"><time>2026-05-08T00:22:30Z</time></trkpt>
<trkpt lat="50.754670" lon="5.667666"><time>2026-05-08T00:32:30Z</time></trkpt>
</trkseg>
</trk>
<trk>
<name>lvili58</name>
<cmt>q</cmt>
<desc>Lixhe Sentier n°58 </desc>
<link href="https://chemins.be/lixhe/sentier/58"/><trkseg>
<trkpt lat="50.747733" lon="5.685027"><time>2026-05-08T00:12:30Z</time></trkpt>
<trkpt lat="50.746341" lon="5.685721"><time>2026-05-08T00:22:30Z</time></trkpt>
</trkseg>
</trk>
<trk>
<name>lvili59</name>
<cmt>q</cmt>
<desc>Lixhe Sentier n°59 </desc>
<link href="https://chemins.be/lixhe/sentier/59"/><trkseg>
<trkpt lat="50.757427" lon="5.663495"><time>2026-05-08T00:12:30Z</time></trkpt>
<trkpt lat="50.758619" lon="5.664017"><time>2026-05-08T00:22:30Z</time></trkpt>
<trkpt lat="50.758853" lon="5.664576"><time>2026-05-08T00:32:30Z</time></trkpt>
<trkpt lat="50.759462" lon="5.666034"><time>2026-05-08T00:42:30Z</time></trkpt>
<trkpt lat="50.760254" lon="5.670211"><time>2026-05-08T00:52:30Z</time></trkpt>
</trkseg>
</trk>
<trk>
<name>lvili6</name>
<cmt>d</cmt>
<desc>Lixhe Chemin n°6 </desc>
<link href="https://chemins.be/lixhe/chemin/6"/><trkseg>
<trkpt lat="50.760728" lon="5.658070"><time>2026-05-08T00:12:30Z</time></trkpt>
<trkpt lat="50.759310" lon="5.657685"><time>2026-05-08T00:22:30Z</time></trkpt>
</trkseg></trk>
<trk>
<name>lvili6</name>
<cmt>q</cmt>
<desc>Lixhe Chemin n°6 </desc>
<link href="https://chemins.be/lixhe/chemin/6"/><trkseg>
<trkpt lat="50.759310" lon="5.657685"><time>2026-05-08T00:22:30Z</time></trkpt>
<trkpt lat="50.752785" lon="5.656145"><time>2026-05-08T00:32:30Z</time></trkpt>
</trkseg></trk>
<trk>
<name>lvili6</name>
<cmt>d</cmt>
<desc>Lixhe Chemin n°6 </desc>
<link href="https://chemins.be/lixhe/chemin/6"/><trkseg>
<trkpt lat="50.752785" lon="5.656145"><time>2026-05-08T00:32:30Z</time></trkpt>
<trkpt lat="50.751570" lon="5.655662"><time>2026-05-08T00:42:30Z</time></trkpt>
</trkseg></trk>
<trk>
<name>lvili6</name>
<cmt>s</cmt>
<desc>Lixhe Chemin n°6 </desc>
<link href="https://chemins.be/lixhe/chemin/6"/><trkseg>
<trkpt lat="50.751570" lon="5.655662"><time>2026-05-08T00:42:30Z</time></trkpt>
<trkpt lat="50.750846" lon="5.655323"><time>2026-05-08T00:52:30Z</time></trkpt>
</trkseg>
</trk>
<trk>
<name>lvili8</name>
<cmt>d</cmt>
<desc>Lixhe Chemin n°8 </desc>
<link href="https://chemins.be/lixhe/chemin/8"/><trkseg>
<trkpt lat="50.767875" lon="5.664345"><time>2026-05-08T00:12:30Z</time></trkpt>
<trkpt lat="50.769451" lon="5.664365"><time>2026-05-08T00:22:30Z</time></trkpt>
<trkpt lat="50.770964" lon="5.664400"><time>2026-05-08T00:32:30Z</time></trkpt>
</trkseg>
</trk>
<trk>
<name>lvili9</name>
<cmt>v</cmt>
<desc>Lixhe Chemin n°9 </desc>
<link href="https://chemins.be/lixhe/chemin/9"/><trkseg>
<trkpt lat="50.756834" lon="5.679248"><time>2026-05-08T00:12:30Z</time></trkpt>
<trkpt lat="50.757721" lon="5.677843"><time>2026-05-08T00:22:30Z</time></trkpt>
</trkseg></trk>
<trk>
<name>lvili9</name>
<cmt>d</cmt>
<desc>Lixhe Chemin n°9 </desc>
<link href="https://chemins.be/lixhe/chemin/9"/><trkseg>
<trkpt lat="50.757721" lon="5.677843"><time>2026-05-08T00:22:30Z</time></trkpt>
<trkpt lat="50.758278" lon="5.677052"><time>2026-05-08T00:32:30Z</time></trkpt>
</trkseg></trk>
<trk>
<name>lvili9</name>
<cmt>s</cmt>
<desc>Lixhe Chemin n°9 </desc>
<link href="https://chemins.be/lixhe/chemin/9"/><trkseg>
<trkpt lat="50.758278" lon="5.677052"><time>2026-05-08T00:32:30Z</time></trkpt>
<trkpt lat="50.759273" lon="5.673858"><time>2026-05-08T00:42:30Z</time></trkpt>
</trkseg></trk>
<trk>
<name>lvili9</name>
<cmt>r</cmt>
<desc>Lixhe Chemin n°9 </desc>
<link href="https://chemins.be/lixhe/chemin/9"/><trkseg>
<trkpt lat="50.759273" lon="5.673858"><time>2026-05-08T00:42:30Z</time></trkpt>
<trkpt lat="50.760341" lon="5.669981"><time>2026-05-08T00:52:30Z</time></trkpt>
</trkseg></trk>
<trk>
<name>lvili9</name>
<cmt>v</cmt>
<desc>Lixhe Chemin n°9 </desc>
<link href="https://chemins.be/lixhe/chemin/9"/><trkseg>
<trkpt lat="50.760341" lon="5.669981"><time>2026-05-08T00:52:30Z</time></trkpt>
<trkpt lat="50.761331" lon="5.667393"><time>2026-05-08T01:02:30Z</time></trkpt>
<trkpt lat="50.762413" lon="5.664611"><time>2026-05-08T01:12:30Z</time></trkpt>
</trkseg></trk>
<trk>
<name>lvili9</name>
<cmt>q</cmt>
<desc>Lixhe Chemin n°9 </desc>
<link href="https://chemins.be/lixhe/chemin/9"/><trkseg>
<trkpt lat="50.762413" lon="5.664611"><time>2026-05-08T01:12:30Z</time></trkpt>
<trkpt lat="50.762965" lon="5.664215"><time>2026-05-08T01:22:30Z</time></trkpt>
<trkpt lat="50.763140" lon="5.663810"><time>2026-05-08T01:32:30Z</time></trkpt>
<trkpt lat="50.763140" lon="5.663466"><time>2026-05-08T01:42:30Z</time></trkpt>
<trkpt lat="50.760579" lon="5.661235"><time>2026-05-08T01:52:30Z</time></trkpt>
<trkpt lat="50.763185" lon="5.660634"><time>2026-05-08T02:02:30Z</time></trkpt>
<trkpt lat="50.764434" lon="5.660920"><time>2026-05-08T02:12:30Z</time></trkpt>
<trkpt lat="50.764714" lon="5.660548"><time>2026-05-08T02:22:30Z</time></trkpt>
<trkpt lat="50.764198" lon="5.660348"><time>2026-05-08T02:32:30Z</time></trkpt>
<trkpt lat="50.764281" lon="5.660029"><time>2026-05-08T02:42:30Z</time></trkpt>
</trkseg></trk>
<trk>
<name>lvili9</name>
<cmt>v</cmt>
<desc>Lixhe Chemin n°9 </desc>
<link href="https://chemins.be/lixhe/chemin/9"/><trkseg>
<trkpt lat="50.764281" lon="5.660029"><time>2026-05-08T02:42:30Z</time></trkpt>
<trkpt lat="50.764823" lon="5.657278"><time>2026-05-08T02:52:30Z</time></trkpt>
</trkseg>
</trk>
<trk>
<name>lvilii1</name>
<cmt>r</cmt>
<desc>Lixhe Chemin n°i1 Rue d'Hallembaye / Rue de Lixhe</desc>
<link href="https://chemins.be/lixhe/chemin/i1"/><trkseg>
<trkpt lat="50.748145" lon="5.672608"><time>2026-05-08T00:12:30Z</time></trkpt>
<trkpt lat="50.746982" lon="5.672921"><time>2026-05-08T00:22:30Z</time></trkpt>
</trkseg></trk>
<trk>
<name>lvilii1</name>
<cmt>v</cmt>
<desc>Lixhe Chemin n°i1 Rue d'Hallembaye / Rue de Lixhe</desc>
<link href="https://chemins.be/lixhe/chemin/i1"/><trkseg>
<trkpt lat="50.746982" lon="5.672921"><time>2026-05-08T00:22:30Z</time></trkpt>
<trkpt lat="50.746514" lon="5.672903"><time>2026-05-08T00:32:30Z</time></trkpt>
<trkpt lat="50.746295" lon="5.672386"><time>2026-05-08T00:42:30Z</time></trkpt>
<trkpt lat="50.746563" lon="5.670305"><time>2026-05-08T00:52:30Z</time></trkpt>
<trkpt lat="50.746692" lon="5.669396"><time>2026-05-08T01:02:30Z</time></trkpt>
</trkseg>
</trk>
<trk>
<name>lvilii10</name>
<cmt>v</cmt>
<desc>Lixhe Chemin n°i10 </desc>
<link href="https://chemins.be/lixhe/chemin/i10"/><trkseg>
<trkpt lat="50.773126" lon="5.681970"><time>2026-05-08T00:12:30Z</time></trkpt>
<trkpt lat="50.769376" lon="5.679734"><time>2026-05-08T00:22:30Z</time></trkpt>
<trkpt lat="50.769192" lon="5.680335"><time>2026-05-08T00:32:30Z</time></trkpt>
</trkseg>
</trk>
<trk>
<name>lvilii2</name>
<cmt>d</cmt>
<desc>Lixhe Chemin n°i2 </desc>
<link href="https://chemins.be/lixhe/chemin/i2"/><trkseg>
<trkpt lat="50.760644" lon="5.658022"><time>2026-05-08T00:12:30Z</time></trkpt>
<trkpt lat="50.760963" lon="5.657046"><time>2026-05-08T00:22:30Z</time></trkpt>
</trkseg></trk>
<trk>
<name>lvilii2</name>
<cmt>v</cmt>
<desc>Lixhe Chemin n°i2 </desc>
<link href="https://chemins.be/lixhe/chemin/i2"/><trkseg>
<trkpt lat="50.760963" lon="5.657046"><time>2026-05-08T00:22:30Z</time></trkpt>
<trkpt lat="50.762324" lon="5.653192"><time>2026-05-08T00:32:30Z</time></trkpt>
</trkseg>
</trk>
<trk>
<name>lvilii3</name>
<cmt>v</cmt>
<desc>Lixhe Chemin n°i3 </desc>
<link href="https://chemins.be/lixhe/chemin/i3"/><trkseg>
<trkpt lat="50.770410" lon="5.663350"><time>2026-05-08T00:12:30Z</time></trkpt>
<trkpt lat="50.768831" lon="5.663093"><time>2026-05-08T00:22:30Z</time></trkpt>
<trkpt lat="50.768519" lon="5.663157"><time>2026-05-08T00:32:30Z</time></trkpt>
<trkpt lat="50.767678" lon="5.663100"><time>2026-05-08T00:42:30Z</time></trkpt>
<trkpt lat="50.767040" lon="5.662685"><time>2026-05-08T00:52:30Z</time></trkpt>
<trkpt lat="50.765297" lon="5.661031"><time>2026-05-08T01:02:30Z</time></trkpt>
<trkpt lat="50.764271" lon="5.660031"><time>2026-05-08T01:12:30Z</time></trkpt>
<trkpt lat="50.760945" lon="5.657054"><time>2026-05-08T01:22:30Z</time></trkpt>
</trkseg>
</trk>
<trk>
<name>lvilii4</name>
<cmt>v</cmt>
<desc>Lixhe Sentier n°i4 </desc>
<link href="https://chemins.be/lixhe/sentier/i4"/><trkseg>
<trkpt lat="50.761436" lon="5.655512"><time>2026-05-08T00:12:30Z</time></trkpt>
<trkpt lat="50.761024" lon="5.655297"><time>2026-05-08T00:22:30Z</time></trkpt>
<trkpt lat="50.760694" lon="5.654968"><time>2026-05-08T00:32:30Z</time></trkpt>
<trkpt lat="50.760454" lon="5.654296"><time>2026-05-08T00:42:30Z</time></trkpt>
</trkseg>
</trk>
<trk>
<name>lvilii5</name>
<cmt>v</cmt>
<desc>Lixhe Sentier n°i5 </desc>
<link href="https://chemins.be/lixhe/sentier/i5"/><trkseg>
<trkpt lat="50.751572" lon="5.678109"><time>2026-05-08T00:12:30Z</time></trkpt>
<trkpt lat="50.752322" lon="5.677827"><time>2026-05-08T00:22:30Z</time></trkpt>
<trkpt lat="50.753910" lon="5.677641"><time>2026-05-08T00:32:30Z</time></trkpt>
<trkpt lat="50.756634" lon="5.677598"><time>2026-05-08T00:42:30Z</time></trkpt>
<trkpt lat="50.758730" lon="5.678390"><time>2026-05-08T00:52:30Z</time></trkpt>
<trkpt lat="50.760097" lon="5.678829"><time>2026-05-08T01:02:30Z</time></trkpt>
<trkpt lat="50.762141" lon="5.679486"><time>2026-05-08T01:12:30Z</time></trkpt>
<trkpt lat="50.763874" lon="5.680160"><time>2026-05-08T01:22:30Z</time></trkpt>
<trkpt lat="50.765564" lon="5.681272"><time>2026-05-08T01:32:30Z</time></trkpt>
<trkpt lat="50.766561" lon="5.681897"><time>2026-05-08T01:42:30Z</time></trkpt>
<trkpt lat="50.767747" lon="5.683051"><time>2026-05-08T01:52:30Z</time></trkpt>
<trkpt lat="50.768427" lon="5.683699"><time>2026-05-08T02:02:30Z</time></trkpt>
<trkpt lat="50.768504" lon="5.683863"><time>2026-05-08T02:12:30Z</time></trkpt>
<trkpt lat="50.768334" lon="5.684307"><time>2026-05-08T02:22:30Z</time></trkpt>
</trkseg>
</trk>
<trk>
<name>lvilii6</name>
<cmt>v</cmt>
<desc>Lixhe Sentier n°i6 </desc>
<link href="https://chemins.be/lixhe/sentier/i6"/><trkseg>
<trkpt lat="50.757721" lon="5.677843"><time>2026-05-08T00:12:30Z</time></trkpt>
<trkpt lat="50.757875" lon="5.677034"><time>2026-05-08T00:22:30Z</time></trkpt>
</trkseg>
</trk>
<trk>
<name>lvilii7</name>
<cmt>v</cmt>
<desc>Lixhe Sentier n°i7 </desc>
<link href="https://chemins.be/lixhe/sentier/i7"/><trkseg>
<trkpt lat="50.776589" lon="5.679941"><time>2026-05-08T00:12:30Z</time></trkpt>
<trkpt lat="50.776369" lon="5.679714"><time>2026-05-08T00:22:30Z</time></trkpt>
<trkpt lat="50.775976" lon="5.679553"><time>2026-05-08T00:32:30Z</time></trkpt>
<trkpt lat="50.775579" lon="5.678679"><time>2026-05-08T00:42:30Z</time></trkpt>
<trkpt lat="50.775502" lon="5.678290"><time>2026-05-08T00:52:30Z</time></trkpt>
<trkpt lat="50.775937" lon="5.677820"><time>2026-05-08T01:02:30Z</time></trkpt>
<trkpt lat="50.776132" lon="5.677611"><time>2026-05-08T01:12:30Z</time></trkpt>
<trkpt lat="50.776138" lon="5.677306"><time>2026-05-08T01:22:30Z</time></trkpt>
<trkpt lat="50.776393" lon="5.677563"><time>2026-05-08T01:32:30Z</time></trkpt>
</trkseg>
</trk>
<trk>
<name>lvilii8</name>
<cmt>v</cmt>
<desc>Lixhe Sentier n°i8 </desc>
<link href="https://chemins.be/lixhe/sentier/i8"/><trkseg>
<trkpt lat="50.752322" lon="5.682767"><time>2026-05-08T00:12:30Z</time></trkpt>
<trkpt lat="50.752221" lon="5.682181"><time>2026-05-08T00:22:30Z</time></trkpt>
</trkseg>
</trk>
<trk>
<name>lvilii9</name>
<cmt>v</cmt>
<desc>Lixhe Chemin n°i9 </desc>
<link href="https://chemins.be/lixhe/chemin/i9"/><trkseg>
<trkpt lat="50.772557" lon="5.682567"><time>2026-05-08T00:12:30Z</time></trkpt>
<trkpt lat="50.769120" lon="5.680425"><time>2026-05-08T00:22:30Z</time></trkpt>
<trkpt lat="50.768946" lon="5.679636"><time>2026-05-08T00:32:30Z</time></trkpt>
<trkpt lat="50.768989" lon="5.679206"><time>2026-05-08T00:42:30Z</time></trkpt>
</trkseg>
</trk>
</gpx>